Location: Caltech
(34.1382°N, 118.1253°W)
Time: 06:04:30
(UTC-07:00)

Oscar 10/S400 - Visible Passes

Search period start: 21 May 2018 00:00
Search period end: 31 May 2018 00:00
Orbit: 3995 x 35452 km, 27.0° (Epoch: 20 May)

Date Brightness Start Highest point End Pass type
(mag) Time Alt. Az. Time Alt. Az. Time Alt. Az.
21 May ? 15:55:28 10° W 16:29:41 69° SSW 02:17:51 10° SSE visible
22 May ? 15:11:03 10° W 15:40:09 72° SSW 01:23:25 10° SSE visible
23 May ? 14:26:46 10° W 14:52:05 74° S 00:26:55 10° SSE visible
24 May ? 13:42:32 10° W 19:10:26 24° SE 22:37:34 16° SSE visible
25 May ? 12:58:18 10° W 19:18:21 18° SE 21:58:58 12° SSE visible
26 May ? 12:14:01 10° WSW 19:06:37 12° SE 20:42:45 10° SE visible
